[Date Prev][Date Next][Thread Prev][Thread Next] - [Date Index][Thread Index][Author Index]
2 Line ISS Keps 5-31
- Subject: [sarex] 2 Line ISS Keps 5-31
- From: "Dave Larsen PhD" <doc@xxxxxxxxxxx>
- Date: Fri, 31 May 2002 02:24:41 -0700
ISS
1 25544U 98067A 02151.16090502 .00024078 00000-0 29571-3 0 5110
2 25544 51.6352 138.5327 0006701 133.0889 285.8565 15.60138062201373
----
Via the sarex mailing list at AMSAT.ORG courtesy of AMSAT-NA.
To unsubscribe, send "unsubscribe sarex" to Majordomo@amsat.org
AMSAT Home